Location: *
(33.8649°S, 62.1526°E)
Time: 13:11:08
(UTC+00:00)

Lacrosse 4 Rocket - Pass Details

Date: 17 January 2021
Orbit: 536 x 621 km, 68.0° (Epoch: 02 March)

Event Time Altitude Azimuth Distance (km) Brightness Sun altitude
Rises 23:44:45 0° 191° (SSW) 2,732 5.2 -14.0°
Reaches altitude 10° 23:47:17 10° 177° (S) 1,825 4.5 -13.6°
Maximum altitude 23:50:39 24° 121° (ESE) 1,139 3.9 -13.0°
Drops below altitude 10° 23:53:59 10° 65° (ENE) 1,803 4.4 -12.5°
Sets 23:56:28 0° 51° (NE) 2,691 5.1 -12.0°
